"timestamp";"minute";"mean_h";"std_h";"mean_l";"std_l"
2019-10-31T23:00:56;1;-117.02012;2.4327273;-116.874214;2.403356
2019-10-31T23:05:56;1;-116.68693;2.447197;-116.504745;2.4932156
2019-10-31T23:10:56;1;-116.38634;2.4580777;-116.330826;2.3892007
2019-10-31T23:15:56;1;-116.231316;2.507249;-116.20167;2.5095112
2019-10-31T23:20:56;1;-115.82735;2.5789506;-115.84188;2.5928628
2019-10-31T23:25:56;1;-116.03764;2.496257;-115.89422;2.51928
2019-10-31T23:30:56;1;-116.13727;2.5214918;-116.30826;2.4589267
2019-10-31T23:45:56;1;-116.22604;2.477916;-116.19487;2.4307573
2019-10-31T23:50:56;1;-116.05699;2.4785264;-116.094;2.5144157
2019-10-31T23:55:56;1;-116.302;2.563829;-116.30438;2.5718877
2019-11-01T00:00:56;1;-116.44521;2.429468;-116.463455;2.4391353
2019-11-01T00:05:56;1;-116.38784;2.604957;-116.25329;2.5903473
2019-11-01T00:10:56;1;-116.36351;2.4951348;-116.160934;2.5394955
2019-11-01T00:15:56;1;-116.480125;2.4768207;-116.3464;2.5319295
2019-11-01T00:20:56;1;-116.49006;2.501493;-116.29192;2.5827534
2019-11-01T00:25:56;1;-116.659485;2.5831661;-116.80736;2.5421188
2019-11-01T00:30:56;1;-116.65269;2.4910486;-116.459564;2.5438852
2019-11-01T00:35:56;1;-116.28647;2.6273952;-116.37949;2.5563085
2019-11-01T00:40:56;1;-116.32466;2.491301;-116.10199;2.6457407
2019-11-01T00:45:56;1;-116.523705;2.5046322;-116.37296;2.535142
2019-11-01T00:50:56;1;-116.60369;2.461448;-116.64447;2.511988
2019-11-01T00:55:56;1;-116.5962;2.4915507;-116.45413;2.5319757
2019-11-01T01:00:56;1;-116.60722;2.5262582;-116.55095;2.3675904
2019-11-01T01:05:56;1;-116.50301;2.503266;-116.52448;2.5591173
2019-11-01T01:10:56;1;-116.4703;2.4646904;-116.52688;2.323573
2019-11-01T01:15:56;1;-116.29549;2.5226529;-116.55762;2.490488
2019-11-01T01:20:56;1;-116.19887;2.4998822;-116.02334;2.5489192
2019-11-01T01:25:56;1;-116.30681;2.4976065;-116.41429;2.4667504
2019-11-01T01:30:56;1;-116.11301;2.5212672;-116.05362;2.5161576
2019-11-01T01:35:56;1;-116.396736;2.5180848;-116.41502;2.4533172
2019-11-01T01:40:56;1;-116.21791;2.4042075;-116.2272;2.3992271
2019-11-01T01:45:56;1;-116.41562;2.472032;-116.468506;2.5152056
2019-11-01T01:50:56;1;-116.60707;2.5372884;-116.69339;2.530174
2019-11-01T01:55:56;1;-116.704735;2.4142947;-116.69901;2.4433048
2019-11-01T02:00:56;1;-116.633766;2.5805552;-116.6273;2.5775647
2019-11-01T02:05:56;1;-116.44845;2.5948489;-116.47673;2.5769718
2019-11-01T02:10:56;1;-116.81373;2.4445884;-116.88159;2.4550378
2019-11-01T02:15:56;1;-116.757805;2.4332225;-116.83096;2.5129995
2019-11-01T02:20:56;1;-116.64067;2.4189541;-116.555504;2.3830051
2019-11-01T02:25:56;1;-116.63857;2.4618936;-116.57176;2.5368733
2019-11-01T02:30:56;1;-116.48737;2.4092011;-116.44889;2.3846803
2019-11-01T02:35:56;1;-116.35133;2.5162582;-116.34517;2.483261
2019-11-01T02:40:56;1;-116.18501;2.518974;-116.25385;2.4952352
2019-11-01T02:45:56;1;-116.164154;2.5433123;-116.01966;2.5714302
2019-11-01T02:50:56;1;-116.4284;2.421825;-116.52247;2.4816768
2019-11-01T02:55:56;1;-115.80492;2.4265594;-115.73355;2.4734483
2019-11-01T03:00:56;1;-116.20385;2.5060644;-116.2433;2.5539172
2019-11-01T03:05:56;1;-116.30362;2.5542753;-116.611885;2.4319954
2019-11-01T03:10:56;1;-116.65224;2.5395074;-116.58736;2.6448803
2019-11-01T03:15:56;1;-116.67759;2.450133;-116.68051;2.4155657
2019-11-01T03:20:56;1;-116.87119;2.461948;-116.83267;2.4262059
2019-11-01T03:25:56;1;-116.71806;2.501021;-116.69262;2.5837653
2019-11-01T03:30:56;1;-116.618675;2.5714023;-116.58309;2.6630147
2019-11-01T03:35:56;1;-116.286545;2.3434548;-116.13546;2.331463
2019-11-01T03:40:56;1;-115.86337;2.4975636;-116.1014;2.6107297
2019-11-01T03:45:56;1;-116.1694;2.5583863;-116.130936;2.5948827
2019-11-01T03:50:56;1;-115.972404;2.5888467;-116.177055;2.474241
2019-11-01T03:55:56;1;-116.77925;2.506752;-116.574295;2.3714936
2019-11-01T04:00:56;1;-116.115715;2.775082;-115.93604;2.8712144
2019-11-01T04:05:56;1;-116.483864;2.4779692;-116.157265;2.5447032
2019-11-01T04:10:56;1;-116.72227;2.494243;-116.65055;2.461173
2019-11-01T04:15:56;1;-116.11018;2.6297956;-116.82581;2.4155622
2019-11-01T04:20:56;1;-116.7368;2.507738;-116.74539;2.5622563
2019-11-01T04:25:56;1;-116.82772;2.4637635;-116.794815;2.4567714
2019-11-01T04:30:56;1;-116.63773;2.516264;-116.551796;2.5749714
2019-11-01T04:35:56;1;-114.6826;3.526862;-113.235054;3.899617
2019-11-01T04:40:56;1;-116.90857;2.4866562;-117.07606;2.3766742
2019-11-01T04:45:56;1;-116.17434;2.6265306;-115.48949;2.5492609
2019-11-01T04:50:56;1;-117.32692;2.3540916;-117.273094;2.3986433
2019-11-01T04:55:56;1;-117.16055;2.5377634;-116.93981;2.5584474
2019-11-01T05:00:56;1;-117.23933;2.5687304;-117.36198;2.5608368
2019-11-01T05:05:56;1;-117.42953;2.479387;-117.48095;2.48886
2019-11-01T05:10:56;1;-117.06779;2.4722552;-116.85166;2.4584472
2019-11-01T05:15:56;1;-116.47649;2.5074043;-116.54262;2.5158727
2019-11-01T05:20:56;1;-115.81556;2.7185452;-115.632065;2.9591203
2019-11-01T05:25:56;1;-116.66065;2.6939394;-116.31993;2.90167
2019-11-01T05:30:56;1;-116.84168;2.4918911;-116.8358;2.5171463
2019-11-01T05:35:56;1;-116.256744;2.8071504;-115.683136;3.1096652
2019-11-01T05:40:56;1;-116.83343;2.4448984;-117.06427;2.3523712
2019-11-01T05:45:56;1;-116.90054;2.515353;-116.79482;2.6069746
2019-11-01T05:50:56;1;-116.79738;2.43609;-116.86682;2.455403
2019-11-01T05:55:56;1;-116.857445;2.4811223;-117.05131;2.350537
2019-11-01T06:00:56;1;-115.97023;2.7217493;-116.41879;2.599655
2019-11-01T06:05:56;1;-116.46622;2.4908564;-116.4391;2.5649643
2019-11-01T06:10:56;1;-116.53976;2.514384;-116.75002;2.4759157
2019-11-01T06:15:56;1;-115.57571;2.8706963;-116.52303;2.557035
2019-11-01T06:20:56;1;-115.514175;2.914538;-116.81912;2.4666352
2019-11-01T06:25:56;1;-114.268394;3.4686382;-116.4312;2.6320755
2019-11-01T06:30:56;1;-114.500046;3.3135147;-116.72907;2.272281
2019-11-01T06:35:56;1;-114.21957;3.6979988;-116.86535;2.5260015
2019-11-01T06:40:56;1;-95.85303;12.462;-116.905045;2.4638171
2019-11-01T06:45:56;1;-94.041374;13.312933;-116.7444;2.5589836
2019-11-01T06:50:56;1;-95.414276;12.774402;-117.08838;2.5051177
2019-11-01T06:55:56;1;-93.79258;13.315119;-116.80107;2.5064723
2019-11-01T07:00:56;1;-88.21363;15.529839;-116.54341;2.4460437
2019-11-01T07:05:56;1;-90.26017;14.994989;-116.79965;2.6416988
2019-11-01T07:10:56;1;-92.24483;13.783637;-116.87464;2.4505684
2019-11-01T07:15:56;1;-90.8367;14.556193;-116.69559;2.4363568
2019-11-01T07:20:56;1;-93.37326;13.343738;-116.86774;2.4639266
2019-11-01T07:25:56;1;-89.706245;15.219256;-116.673805;2.5754976
2019-11-01T07:30:56;1;-92.911674;13.409058;-116.76806;2.4513087
2019-11-01T07:35:56;1;-91.38224;14.1537895;-116.936775;2.4024866
2019-11-01T07:40:56;1;-90.59295;14.695279;-116.769966;2.5921288
2019-11-01T07:45:56;1;-91.91627;13.867062;-116.74586;2.5933244
2019-11-01T07:50:56;1;-89.334755;14.915011;-116.98075;2.387974
2019-11-01T07:55:56;1;-94.62064;12.577336;-116.74522;2.4522142
2019-11-01T08:00:56;1;-95.55952;12.058202;-116.5206;2.531737
2019-11-01T08:05:56;1;-91.57865;13.979615;-116.71104;2.423194
2019-11-01T08:10:56;1;-94.17749;12.763682;-116.54069;2.5674925
2019-11-01T08:15:56;1;-94.2038;12.884534;-116.774284;2.563549
2019-11-01T08:20:56;1;-92.78391;13.56423;-116.93782;2.5073447
2019-11-01T08:25:56;1;-93.022156;13.4684925;-116.992935;2.4124224
2019-11-01T08:30:56;1;-92.24278;13.458881;-116.32812;2.4922974
2019-11-01T08:35:56;1;-93.16228;13.428165;-116.8783;2.3998418
2019-11-01T08:40:56;1;-91.55172;13.87852;-116.465965;2.374627
2019-11-01T08:45:56;1;-94.98669;12.202626;-116.16766;2.5306447
2019-11-01T08:50:56;1;-96.069664;11.568146;-116.09772;2.5403914
2019-11-01T08:55:56;1;-92.06028;13.53373;-116.6817;2.4706535
2019-11-01T09:00:56;1;-93.37868;12.6760025;-116.11185;2.2529025
2019-11-01T09:05:56;1;-96.11144;11.377303;-115.86723;2.482854
2019-11-01T09:10:56;1;-94.99706;11.959098;-115.927055;2.4626033
2019-11-01T09:15:56;1;-95.210014;11.025742;-114.24236;2.5040529
2019-11-01T09:20:56;1;-93.6355;12.084548;-114.86331;2.5199366
2019-11-01T09:25:56;1;-97.291245;11.173642;-116.67775;2.3643556
2019-11-01T09:30:56;1;-96.21585;11.854457;-116.77225;2.457125
2019-11-01T09:35:56;1;-93.27944;12.968929;-116.7021;2.2843518
2019-11-01T09:40:56;1;-100.778915;9.623472;-116.91578;2.3172858
2019-11-01T09:45:56;1;-99.72491;10.40638;-117.06124;2.4794598
2019-11-01T09:50:56;1;-90.53892;14.5308;-116.611885;2.4198406
2019-11-01T09:55:56;1;-96.687256;11.438641;-116.7269;2.4626334
2019-11-01T10:00:56;1;-98.52093;10.6359415;-116.62225;2.474294
2019-11-01T10:05:56;1;-99.70972;10.070831;-116.78603;2.3676836
2019-11-01T10:10:56;1;-99.48397;8.923106;-113.59418;2.7872832
2019-11-01T10:15:56;1;-95.04424;12.251837;-116.88068;2.4604857
2019-11-01T10:20:56;1;-95.9906;11.995764;-116.78121;2.3565056
2019-11-01T10:25:56;1;-96.66793;11.419505;-116.93944;2.5893364
2019-11-01T10:30:56;1;-96.43139;11.6782255;-116.851036;2.4234433
2019-11-01T10:35:56;1;-94.68077;12.738575;-116.89237;2.4707437
2019-11-01T10:40:56;1;-97.669075;11.207524;-116.929344;2.5469055
2019-11-01T10:45:56;1;-97.79514;10.9862;-116.84728;2.4137313
2019-11-01T10:50:56;1;-93.84658;13.029547;-116.88009;2.3895984
2019-11-01T10:55:56;1;-98.468544;9.926305;-114.642105;2.6382148
2019-11-01T11:00:56;1;-100.81933;9.343475;-116.078896;2.5266955
2019-11-01T11:05:56;1;-95.83341;10.519166;-113.91677;2.6787105
2019-11-01T11:10:56;1;-95.09208;12.065976;-116.24096;2.54392
2019-11-01T11:15:56;1;-100.6128;9.4529085;-116.654274;2.433083
2019-11-01T11:20:56;1;-98.601685;10.722895;-116.75782;2.521129
2019-11-01T11:25:56;1;-98.75391;10.726312;-116.79984;2.4608757
2019-11-01T11:30:56;1;-99.53766;10.444015;-117.15348;2.391673
2019-11-01T11:35:56;1;-95.1001;12.338053;-117.07431;2.3917353
2019-11-01T11:40:56;1;-96.436745;11.912229;-116.99025;2.4314873
2019-11-01T11:45:56;1;-97.267136;11.501168;-117.15603;2.4639637
2019-11-01T11:50:56;1;-97.17682;11.515778;-117.02046;2.3905907
2019-11-01T11:55:56;1;-96.75062;11.70791;-117.24066;2.5658245
2019-11-01T12:00:56;1;-97.899025;11.349347;-116.949715;2.4252083
2019-11-01T12:05:56;1;-98.65487;10.8805485;-117.080505;2.4635234
2019-11-01T12:10:56;1;-91.46549;14.071336;-117.29585;2.454315
2019-11-01T12:15:56;1;-100.94596;9.7600565;-116.96419;2.4411943
2019-11-01T12:20:56;1;-92.556175;13.646021;-117.08955;2.436608
2019-11-01T12:25:56;1;-97.89219;11.092353;-116.96022;2.6130931
2019-11-01T12:30:56;1;-96.173775;12.27755;-116.95206;2.576217
2019-11-01T12:35:56;1;-97.22607;11.337814;-116.76354;2.421671
2019-11-01T12:40:56;1;-96.57366;11.862052;-116.81867;2.4174275
2019-11-01T12:45:56;1;-93.9411;13.027804;-117.02147;2.540479
2019-11-01T12:50:56;1;-100.97198;9.38938;-116.49348;2.4457862
2019-11-01T12:55:56;1;-98.01535;10.65487;-116.15028;2.4548085
2019-11-01T13:00:56;1;-91.90068;13.689062;-116.34218;2.4943738
2019-11-01T13:05:56;1;-95.18463;12.069185;-116.4541;2.5016286
2019-11-01T13:10:56;1;-97.87735;10.813524;-116.25601;2.4986906
2019-11-01T13:15:56;1;-95.450386;12.112886;-116.46396;2.4854891
2019-11-01T13:20:56;1;-91.99171;13.752376;-115.90556;2.617083
2019-11-01T13:25:56;1;-95.13209;12.392835;-116.37483;2.4918895
2019-11-01T13:30:56;1;-94.03881;12.727491;-116.63982;2.4249122
2019-11-01T13:35:56;1;-94.115295;12.9649935;-116.524864;2.4070008
2019-11-01T13:40:56;1;-99.13602;10.351674;-116.381035;2.5255752
2019-11-01T13:45:56;1;-97.24344;11.251681;-116.51234;2.4272096
2019-11-01T13:50:56;1;-92.16541;14.144982;-117.03543;2.4809175
2019-11-01T13:55:56;1;-98.99007;10.779935;-117.30614;2.5967698
2019-11-01T14:00:56;1;-94.77932;12.209278;-116.90189;2.5306463
2019-11-01T14:05:56;1;-97.92036;10.993219;-116.85208;2.506046
2019-11-01T14:10:56;1;-95.1567;12.528736;-116.70959;2.411436
2019-11-01T14:15:56;1;-96.505554;11.682317;-116.945595;2.5923831
2019-11-01T14:20:56;1;-92.61759;13.687612;-117.30974;2.5067184
2019-11-01T14:25:56;1;-101.39556;9.298603;-116.87563;2.483554
2019-11-01T14:30:56;1;-93.37168;12.983386;-116.92121;2.43223
2019-11-01T14:35:56;1;-94.611725;12.680496;-117.06429;2.3840208
2019-11-01T14:40:56;1;-96.360664;12.1785755;-117.14789;2.4569957
2019-11-01T14:45:56;1;-93.52775;13.32761;-116.77533;2.398577
2019-11-01T14:50:56;1;-95.6247;12.266167;-116.60106;2.4693305
2019-11-01T14:55:56;1;-96.517136;11.5966835;-116.72026;2.4790103
2019-11-01T15:00:56;1;-92.1608;13.623455;-116.767265;2.4320688
2019-11-01T15:05:56;1;-96.015144;12.017088;-117.074135;2.4540744
2019-11-01T15:10:56;1;-93.16595;13.546079;-117.047325;2.5294094
2019-11-01T15:15:56;1;-93.761566;13.036757;-116.79617;2.5433683
2019-11-01T15:20:56;1;-92.26308;13.8824005;-117.15132;2.47127
2019-11-01T15:25:56;1;-97.037476;11.956008;-117.59885;2.5821204
2019-11-01T15:30:56;1;-90.63643;14.844043;-117.68157;2.5378225
2019-11-01T15:35:56;1;-93.49668;13.586803;-117.60303;2.509827
2019-11-01T15:40:56;1;-89.786674;15.518139;-117.527985;2.4314022
2019-11-01T15:45:56;1;-91.78133;14.437739;-117.39609;2.6175082
2019-11-01T15:50:56;1;-93.146385;13.627204;-117.61649;2.34678
2019-11-01T15:55:56;1;-91.10861;14.417684;-117.89638;2.3821049
2019-11-01T16:00:56;1;-97.05894;12.571108;-118.51652;2.555553
2019-11-01T16:05:56;1;-91.90661;14.943759;-118.4328;2.5771756
2019-11-01T16:10:56;1;-104.28898;8.719263;-117.82112;2.649486
2019-11-01T16:15:56;1;-118.00577;2.5599627;-118.060936;2.5247211
2019-11-01T16:20:56;1;-118.34782;2.525024;-118.331764;2.5215878
2019-11-01T16:25:56;1;-118.47579;2.4166932;-118.53578;2.4577901
2019-11-01T16:30:56;1;-118.439156;2.4354818;-118.53776;2.4973972
2019-11-01T16:35:56;1;-118.089165;2.4878943;-118.10938;2.4596217
2019-11-01T16:40:56;1;-118.30057;2.4468708;-118.73655;2.3898778
2019-11-01T16:45:56;1;-118.76374;2.5076466;-118.73705;2.4741287
2019-11-01T16:50:56;1;-118.55406;2.435653;-118.3716;2.506843
2019-11-01T16:55:56;1;-118.55041;2.4462204;-118.50891;2.438848
2019-11-01T17:00:56;1;-118.44598;2.5884883;-118.37744;2.671301
2019-11-01T17:05:56;1;-117.861595;2.561461;-117.824936;2.5946972
2019-11-01T17:10:56;1;-117.781364;2.5886636;-117.7751;2.6190038
2019-11-01T17:15:56;1;-117.59139;2.6496036;-117.69626;2.6756408
2019-11-01T17:20:56;1;-117.58421;2.6237273;-117.55752;2.6860716
2019-11-01T17:25:56;1;-118.52929;2.5700645;-118.465225;2.5065079
2019-11-01T17:30:56;1;-118.218834;2.410285;-118.325165;2.4067123
2019-11-01T17:35:56;1;-118.00942;2.4299598;-117.95524;2.4487624
2019-11-01T17:40:56;1;-117.75841;2.455493;-117.74083;2.4449668
2019-11-01T17:45:56;1;-117.843544;2.5272155;-117.833;2.586613
2019-11-01T17:50:56;1;-117.83754;2.493059;-117.952324;2.4877658
2019-11-01T17:55:56;1;-117.69003;2.4325151;-117.80722;2.33385
2019-11-01T18:00:56;1;-118.06415;2.4938464;-117.914955;2.5793235
2019-11-01T18:05:56;1;-118.03286;2.4269764;-118.17069;2.4656906
2019-11-01T18:10:56;1;-117.94232;2.5375926;-117.98185;2.5290956
2019-11-01T18:15:56;1;-118.0318;2.5285864;-118.37476;2.5229
2019-11-01T18:20:56;1;-118.22527;2.5789282;-118.32499;2.6062977
2019-11-01T18:25:56;1;-118.39331;2.4240792;-118.333626;2.5197775
2019-11-01T18:30:56;1;-118.17497;2.5938473;-118.09884;2.6209972
2019-11-01T18:35:56;1;-117.54539;2.563976;-117.856674;2.5194998
2019-11-01T18:40:56;1;-117.008545;2.851504;-118.261894;2.4168406
2019-11-01T18:45:56;1;-113.42184;4.6275845;-118.116486;2.5033422
2019-11-01T18:50:56;1;-105.9549;8.046494;-118.52175;2.4723568
2019-11-01T18:55:56;1;-107.37164;7.327934;-118.36586;2.4311092
2019-11-01T19:00:56;1;-109.77188;6.578906;-118.68774;2.5071237
2019-11-01T19:05:56;1;-117.87688;2.5112855;-118.28032;2.3415384
2019-11-01T19:10:56;1;-118.10683;2.522581;-118.06892;2.595488
2019-11-01T19:15:56;1;-117.79142;2.4366176;-117.84427;2.3918846
2019-11-01T19:20:56;1;-118.30142;2.5526316;-118.21429;2.520447
2019-11-01T19:25:56;1;-117.79245;2.4703162;-118.04489;2.4910502
2019-11-01T19:30:56;1;-118.111084;2.4343395;-118.14462;2.3932698
2019-11-01T19:35:56;1;-118.36156;2.48192;-118.44051;2.4393272
2019-11-01T19:40:56;1;-118.307884;2.3717952;-118.404816;2.3838634
2019-11-01T19:45:56;1;-118.16556;2.5581734;-117.924065;2.5539846
2019-11-01T19:50:56;1;-117.82185;2.4430952;-117.71293;2.5249403
2019-11-01T19:55:56;1;-117.13006;2.5001502;-117.19791;2.4806361
2019-11-01T20:00:56;1;-117.31612;2.4799879;-117.406525;2.443046
2019-11-01T20:05:56;1;-117.43695;2.4398913;-117.4114;2.3490465
2019-11-01T20:10:56;1;-117.714584;2.583833;-117.6589;2.5757177
2019-11-01T20:15:56;1;-117.14007;2.5259457;-117.059746;2.4950144
2019-11-01T20:20:56;1;-116.9027;2.5075922;-117.000175;2.5491517
2019-11-01T20:25:56;1;-117.21835;2.367604;-117.0536;2.3848412
2019-11-01T20:30:56;1;-116.298294;2.5965865;-116.18713;2.593825
2019-11-01T20:35:56;1;-115.23551;2.445092;-115.20378;2.4607317
2019-11-01T20:40:56;1;-115.4021;2.4485972;-115.64603;2.4402144
2019-11-01T20:45:56;1;-115.671936;2.5286336;-115.81916;2.491728
2019-11-01T20:50:56;1;-116.69524;2.5176532;-116.56089;2.5040467
2019-11-01T20:55:56;1;-116.15556;2.5202057;-116.18165;2.5542908
2019-11-01T21:00:56;1;-115.33607;2.5729072;-115.32223;2.652126
2019-11-01T21:05:56;1;-115.39613;2.5794766;-115.66078;2.5392063
2019-11-01T21:10:56;1;-116.44867;2.581784;-116.49659;2.5084782
2019-11-01T21:15:56;1;-114.92501;2.3570318;-114.96476;2.3760047
2019-11-01T21:20:56;1;-116.854126;2.5374618;-116.99603;2.502459
2019-11-01T21:25:56;1;-115.88793;2.501719;-115.58654;2.4452193
2019-11-01T21:30:56;1;-115.969055;2.5739834;-116.06558;2.5142725
2019-11-01T21:35:56;1;-116.052414;2.589027;-115.82687;2.6321995
2019-11-01T21:40:56;1;-115.24332;2.3660376;-115.443184;2.3763745
2019-11-01T21:45:56;1;-115.88185;2.5719666;-116.113434;2.5839365
2019-11-01T21:50:56;1;-116.26189;2.5726013;-116.33283;2.5300922
2019-11-01T21:55:56;1;-115.21111;2.641208;-115.03393;2.6550672
2019-11-01T22:00:56;1;-114.01593;2.5528529;-113.69478;2.5962663
2019-11-01T22:05:56;1;-113.06602;2.467249;-112.93368;2.4561594
2019-11-01T22:10:56;1;-112.322914;2.5494757;-112.50888;2.5246563
2019-11-01T22:15:56;1;-114.72825;2.333455;-114.67679;2.3407602
2019-11-01T22:20:56;1;-113.76982;2.444911;-113.4502;2.3823922
2019-11-01T22:25:56;1;-112.95819;2.350232;-112.82371;2.4082725
2019-11-01T22:30:56;1;-113.00757;2.624846;-112.99133;2.7033846
2019-11-01T22:35:56;1;-114.08439;2.5058806;-114.181404;2.5073175
2019-11-01T22:40:56;1;-114.82303;2.4042804;-114.89164;2.3906782
2019-11-01T22:45:56;1;-115.16034;2.5312328;-115.0323;2.5095804
2019-11-01T22:50:56;1;-115.505905;2.4801974;-115.405266;2.5278745
2019-11-01T22:55:56;1;-115.62246;2.528403;-115.834564;2.5968578
2019-11-01T23:00:56;1;-115.3482;2.4801755;-115.10018;2.37964
2019-11-01T23:05:56;1;-114.32773;2.5129826;-114.56878;2.4073064
2019-11-01T23:10:56;1;-114.33659;2.5659778;-114.21222;2.5084298
2019-11-01T23:15:56;1;-114.105606;2.4081187;-113.99785;2.3447595
2019-11-01T23:20:56;1;-112.87406;2.505887;-112.76605;2.60624
2019-11-01T23:25:56;1;-113.88789;2.38945;-114.11842;2.432445
2019-11-01T23:30:56;1;-114.76158;2.4515967;-114.81387;2.474551
2019-11-01T23:35:56;1;-113.947136;2.3911092;-113.855225;2.3496592
2019-11-01T23:40:56;1;-114.43672;2.3836129;-114.449036;2.4057977
2019-11-01T23:45:56;1;-115.72201;2.384906;-115.52725;2.4083881
2019-11-01T23:50:56;1;-114.913734;2.366103;-114.90033;2.308617
2019-11-01T23:55:56;1;-115.09551;2.4003885;-115.1431;2.469091
2019-11-02T00:00:56;1;-115.4583;2.3606331;-115.708275;2.3584106
2019-11-02T00:05:56;1;-115.93203;2.4118273;-116.05081;2.3982973
2019-11-02T00:10:56;1;-115.672134;2.472112;-115.488205;2.4689
2019-11-02T00:15:56;1;-116.11563;2.3509436;-116.21675;2.419119
2019-11-02T00:20:56;1;-116.08224;2.333531;-116.04819;2.3743317
2019-11-02T00:25:56;1;-115.783104;2.3763344;-115.807;2.340097
2019-11-02T00:30:56;1;-115.67653;2.4372005;-115.8343;2.4418097
2019-11-02T00:35:56;1;-115.6222;2.4317863;-115.707924;2.367974
2019-11-02T00:40:56;1;-116.06489;2.4762075;-115.8614;2.3601
2019-11-02T00:45:56;1;-115.23507;2.4180489;-115.18507;2.4090455
2019-11-02T00:50:56;1;-114.1625;2.3727462;-113.991776;2.2864118
2019-11-02T00:55:56;1;-113.730835;2.359322;-113.654434;2.3919904
2019-11-02T01:00:56;1;-114.279015;2.3471425;-114.55065;2.3572023
2019-11-02T01:05:56;1;-114.69215;2.342193;-114.499504;2.3548331
2019-11-02T01:10:56;1;-113.94481;2.371949;-113.79719;2.3507702
2019-11-02T01:15:56;1;-114.21654;2.5760088;-114.10665;2.5824564
2019-11-02T01:20:56;1;-113.69618;2.5402532;-113.91594;2.4656763
2019-11-02T01:25:56;1;-114.777824;2.4934058;-114.883644;2.5619426
2019-11-02T01:30:56;1;-115.22754;2.4790645;-115.56551;2.458283
2019-11-02T01:35:56;1;-115.22708;2.540869;-115.207;2.6244185
2019-11-02T01:40:56;1;-115.89736;2.4147534;-115.81077;2.4419448
2019-11-02T01:45:56;1;-114.58357;2.4178119;-114.55037;2.3497236
2019-11-02T01:50:56;1;-115.58081;2.594963;-116.070145;2.4830277
2019-11-02T01:55:56;1;-115.97346;2.463075;-115.94968;2.4276044
2019-11-02T02:00:56;1;-115.91245;2.4535608;-115.75169;2.4388459
2019-11-02T02:05:56;1;-115.92375;2.5160396;-116.10842;2.4078393
2019-11-02T02:10:56;1;-115.89763;2.5123556;-116.03687;2.4623814
2019-11-02T02:15:56;1;-115.363716;2.5940661;-114.98539;2.5784822
2019-11-02T02:20:56;1;-115.34498;2.4960527;-115.46532;2.5266387
2019-11-02T02:25:56;1;-115.2563;2.7142074;-115.87955;2.38363
2019-11-02T02:30:56;1;-115.83565;2.4052906;-115.86814;2.3377001
2019-11-02T02:35:56;1;-115.80128;2.4838128;-115.73948;2.5338047
2019-11-02T02:40:56;1;-116.01916;2.4388883;-116.07406;2.3957064
2019-11-02T02:45:56;1;-116.09811;2.543048;-116.22603;2.541609
2019-11-02T02:50:56;1;-115.892914;2.513672;-115.76356;2.515552
2019-11-02T02:55:56;1;-116.449295;2.4482036;-116.540855;2.4066858
2019-11-02T03:00:56;1;-115.94975;2.5110085;-115.91477;2.5856497
2019-11-02T03:05:56;1;-115.492165;2.5399237;-115.476524;2.5111167
2019-11-02T03:10:56;1;-115.576126;2.5524185;-115.53015;2.5920317
2019-11-02T03:15:56;1;-115.63497;2.4887486;-115.77594;2.3840098
2019-11-02T03:20:56;1;-115.60559;2.5028064;-115.655556;2.4710927
2019-11-02T03:25:56;1;-114.92134;2.5371714;-114.852905;2.444338
2019-11-02T03:30:56;1;-114.97898;2.5194716;-115.13217;2.392343
2019-11-02T03:35:56;1;-115.82926;2.427779;-115.891815;2.413823
2019-11-02T03:40:56;1;-115.7728;2.4672449;-115.89485;2.40054
2019-11-02T03:45:56;1;-116.011375;2.4465501;-116.22361;2.4013698
2019-11-02T03:50:56;1;-116.20854;2.4503508;-116.14274;2.4364257
2019-11-02T03:55:56;1;-116.02767;2.4225438;-115.99741;2.4069655
2019-11-02T04:00:56;1;-115.713806;2.5250156;-115.95403;2.416639
2019-11-02T04:05:56;1;-115.82868;2.557398;-115.63058;2.5379577
2019-11-02T04:10:56;1;-114.8149;2.4409866;-114.87371;2.3959806
2019-11-02T04:15:56;1;-114.24203;2.4580371;-114.29308;2.4799356
2019-11-02T04:20:56;1;-113.40789;2.4919987;-113.3391;2.419395
2019-11-02T04:25:56;1;-112.82524;2.603136;-112.9539;2.5673218
2019-11-02T04:30:56;1;-114.08016;2.4566174;-114.16183;2.449677
2019-11-02T04:35:56;1;-114.642685;2.5822895;-114.67356;2.5893922
2019-11-02T04:40:56;1;-115.41594;2.5529764;-115.50551;2.5718381
2019-11-02T04:45:56;1;-114.94619;2.470906;-114.86859;2.4400969
2019-11-02T04:50:56;1;-115.60911;2.5120149;-115.80553;2.4924593
2019-11-02T04:55:56;1;-114.85642;2.5497584;-114.78249;2.5963855
2019-11-02T05:00:56;1;-114.61168;2.4866471;-114.70167;2.425167
2019-11-02T05:05:56;1;-113.51964;2.489026;-113.63088;2.5841432
2019-11-02T05:10:56;1;-113.858696;2.3811085;-113.69929;2.4332898
2019-11-02T05:15:56;1;-113.778145;2.4877052;-113.866005;2.446427
2019-11-02T05:20:56;1;-114.11057;2.3533604;-114.11204;2.3400478
2019-11-02T05:25:56;1;-115.51074;2.3683798;-115.644905;2.4265676
2019-11-02T05:30:56;1;-114.59197;2.4337955;-114.70158;2.3812685
2019-11-02T05:35:56;1;-113.703674;2.4456658;-113.64059;2.4771807
2019-11-02T05:40:56;1;-113.83738;2.3428621;-113.89727;2.419502
2019-11-02T05:45:56;1;-114.93063;2.399859;-114.8576;2.417907
2019-11-02T05:50:56;1;-113.69095;2.450461;-113.7157;2.4778883
2019-11-02T05:55:56;1;-114.00286;2.5103211;-114.19118;2.4863007
2019-11-02T06:00:56;1;-114.52025;2.594349;-114.2946;2.7240837
2019-11-02T06:05:56;1;-114.86635;2.4243436;-115.02523;2.4509988
2019-11-02T06:10:56;1;-114.00521;2.532567;-114.44508;2.3728006
2019-11-02T06:15:56;1;-112.92538;2.5055969;-112.79021;2.503415
2019-11-02T06:20:56;1;-94.593636;11.190177;-113.21401;2.3567753
2019-11-02T06:25:56;1;-98.236984;9.670448;-113.82729;2.4078746
2019-11-02T06:30:56;1;-100.45272;8.415028;-113.391525;2.5745966